Regional Weather Roundup
Issued by NWS

Home | Current Version | Previous Version | Text Only | Print | Product List | Glossary Off
Versions: 1 2 3 4 5 6 7 8 9 10 11 12 13 14 15 16 17 18 19 20 21 22 23 24 25 26 27 28 29 30 31 32 33 34 35 36 37 38 39 40 41 42 43 44 45 46 47 48 49 50

000
ASUS45 KBOI 262010
RWRID

IDAHO REGIONAL WEATHER ROUNDUP
NATIONAL WEATHER SERVICE BOISE ID
200 PM MDT TUE MAY 26 2015

NOTE: "FAIR" INDICATES FEW OR NO CLOUDS BELOW 12000 FEET
WITH NO SIGNIFICANT WEATHER AND/OR OBSTRUCTIONS TO VISIBILITY

IDZ012-014-262100-
SOUTHWEST IDAHO


CITY           SKY/WX    TMP DP  RH WIND       PRES   REMARKS
BOISE          MOSUNNY   73  46  38 S6        29.92F
CALDWELL       MOSUNNY   73  45  35 SE3       29.92F
MOUNTAIN HOME  MOSUNNY   76  42  30 W10       29.90F
$$

IDZ016-017-262100-
SOUTHCENTRAL IDAHO


CITY           SKY/WX    TMP DP  RH WIND       PRES   REMARKS
BURLEY         MOSUNNY   64  47  53 SW9       29.97F
JEROME         SUNNY     68  43  40 SW5       29.96F
TWIN FALLS     MOSUNNY   71  42  35 VRB6      29.94F
$$

IDZ019>023-262100-
SOUTHEAST IDAHO


CITY           SKY/WX    TMP DP  RH WIND       PRES   REMARKS
IDAHO FALLS    PTSUNNY   63  48  58 S15       30.00F
POCATELLO      MOSUNNY   64  47  53 VRB6      30.00F
REXBURG        LGT RAIN  55  47  74 SW9       30.00S
$$

IDZ006-010-011-018-031-032-262100-
CENTRAL IDAHO MOUNTAINS


CITY           SKY/WX    TMP DP  RH WIND       PRES   REMARKS
MCCALL         PTSUNNY   62  31  31 S9        29.97F
HAILEY         PTSUNNY   61  45  55 S12       30.01S
STANLEY          N/A     61  35  37 NW13      30.03F
SALMON         MOSUNNY   64  46  52 N6        29.93F
CHALLIS        MOSUNNY   66  37  34 NE8       29.95F
$$

IDZ002-004-006-007-026-262100-
NORTHERN IDAHO


CITY           SKY/WX    TMP DP  RH WIND       PRES   REMARKS
LEWISTON       CLOUDY    66  50  56 SW8       29.97R
LOWELL           N/A     72  48  42 S5        29.90F
COEUR D`ALENE  PTSUNNY   63  45  51 SW8G16    29.97R
MULLAN PASS    LGT RAIN  44  41  89 N3        30.04S
$$


USA.gov is the U.S. government's official web portal to all federal, state and local government web resources and services.